FW2365 Weather Reports


Display with metric or nautical units.
time (UTC)temp
F
wind
direction
speed
MPH
gust
MPH
rain 1hr
in
rain 24hr
in
rain mn
in
humidity
%
barometer
mb
20260505193013 57 197 0.0 2.0 0.00 0.00 0.00 57 1010.4
20260505192512 57 197 0.0 2.0 0.00 0.00 0.00 57 1010.4
20260505192013 58 197 0.0 2.0 0.00 0.00 0.00 58 1010.4
20260505191515 58 197 0.0 2.0 0.00 0.00 0.00 58 1010.3
20260505191013 59 197 0.0 2.0 0.00 0.00 0.00 55 1010.2
20260505190512 59 197 1.0 2.0 0.00 0.00 0.00 55 1010.2
20260505190013 59 169 0.0 3.0 0.00 0.00 0.00 55 1010.2
20260505185513 59 169 0.0 4.0 0.00 0.00 0.00 55 1010.1
20260505185012 59 162 0.0 2.0 0.00 0.00 0.00 54 1010.0
20260505184511 59 162 0.0 3.0 0.00 0.00 0.00 54 1010.0
20260505184012 59 162 1.0 3.0 0.00 0.00 0.00 53 1009.9
20260505183514 60 162 1.0 3.0 0.00 0.00 0.00 54 1009.8
20260505183014 61 162 0.0 2.0 0.00 0.00 0.00 51 1009.7
20260505182513 61 162 0.0 2.0 0.00 0.00 0.00 52 1009.7
20260505182013 61 162 0.0 4.0 0.00 0.00 0.00 48 1009.6
20260505181510 61 162 2.0 4.0 0.00 0.00 0.00 49 1009.5
20260505181012 61 277 2.0 4.0 0.00 0.00 0.00 49 1009.3
20260505180510 61 276 2.0 4.0 0.00 0.00 0.00 49 1009.2
20260505180010 61 229 0.0 2.0 0.00 0.00 0.00 49 1009.3
20260505175509 61 229 0.0 2.0 0.00 0.00 0.00 50 1009.3
20260505175009 62 230 0.0 2.0 0.00 0.00 0.00 51 1009.2
20260505174509 62 230 0.0 2.0 0.00 0.00 0.00 50 1009.1
20260505174010 62 230 1.0 2.0 0.00 0.00 0.00 49 1009.1
20260505173510 62 230 0.0 2.0 0.00 0.00 0.00 49 1009.0
20260505173009 62 230 0.0 2.0 0.00 0.00 0.00 49 1009.1
20260505172512 62 230 0.0 2.0 0.00 0.00 0.00 48 1009.1
20260505172008 62 230 0.0 2.0 0.00 0.00 0.00 50 1009.2
20260505171516 62 230 0.0 2.0 0.00 0.00 0.00 49 1009.2
20260505171008 62 229 0.0 2.0 0.00 0.00 0.00 50 1009.2
20260505170509 62 229 0.0 2.0 0.00 0.00 0.00 49 1009.2
20260505170010 62 229 0.0 2.0 0.00 0.00 0.00 50 1009.1
20260505165507 62 229 0.0 2.0 0.00 0.00 0.00 52 1009.1
20260505165008 62 229 0.0 2.0 0.00 0.00 0.00 50 1009.2
20260505164507 62 229 0.0 2.0 0.00 0.00 0.00 49 1009.2
20260505164008 61 229 0.0 2.0 0.00 0.00 0.00 51 1009.2
20260505163506 61 229 0.0 2.0 0.00 0.00 0.00 53 1009.3
20260505163009 62 229 0.0 2.0 0.00 0.00 0.00 53 1009.3
20260505162505 62 229 0.0 2.0 0.00 0.00 0.00 53 1009.3
20260505162005 62 230 0.0 2.0 0.00 0.00 0.00 53 1009.4
20260505161505 62 293 0.0 2.0 0.00 0.00 0.00 53 1009.3
20260505161005 62 293 0.0 2.0 0.00 0.00 0.00 53 1009.3
20260505160508 63 292 0.0 2.0 0.00 0.00 0.00 54 1009.3
20260505153003 62 165 0.0 2.0 0.00 0.00 0.00 58 1009.8
20260505152502 62 165 0.0 2.0 0.00 0.00 0.00 61 1009.7
20260505152002 61 165 0.0 3.0 0.00 0.00 0.00 59 1009.8
20260505151505 61 165 0.0 3.0 0.00 0.00 0.00 58 1009.9
20260505151002 61 145 1.0 3.0 0.00 0.00 0.00 58 1009.8
20260505150502 61 122 1.0 3.0 0.00 0.00 0.00 58 1009.8
20260505140600 66 50 2.0 6.0 0.00 0.00 0.00 44 1009.4
20260505140109 66 268 1.0 8.0 0.00 0.00 0.00 42 1009.2
20260505124557 69 270 3.0 10.0 0.00 0.00 0.00 36 1008.8
20260505124056 69 230 2.0 10.0 0.00 0.00 0.00 36 1008.8
20260505123556 69 289 4.0 11.0 0.00 0.00 0.00 36 1008.9
20260505123100 69 309 2.0 8.0 0.00 0.00 0.00 36 1008.9
20260505122555 69 251 2.0 16.0 0.00 0.00 0.00 36 1008.9
20260505122056 70 323 4.0 17.0 0.00 0.00 0.00 37 1008.9
20260505121556 70 272 8.0 17.0 0.00 0.00 0.00 36 1008.8
20260505121055 71 287 1.0 6.0 0.00 0.00 0.00 34 1008.9
20260505120557 71 304 1.0 6.0 0.00 0.00 0.00 34 1008.9
20260505120111 71 314 1.0 10.0 0.00 0.00 0.00 35 1008.7
20260505115554 71 291 3.0 10.0 0.00 0.00 0.00 34 1008.8
20260505115054 71 304 4.0 9.0 0.00 0.00 0.00 34 1008.9
20260505114555 71 323 1.0 3.0 0.00 0.00 0.00 34 1008.8
20260505114054 71 196 1.0 2.0 0.00 0.00 0.00 34 1008.9
20260505113558 71 196 0.0 2.0 0.00 0.00 0.00 35 1008.8
20260505113053 70 195 0.0 8.0 0.00 0.00 0.00 33 1008.8
20260505112553 71 295 3.0 10.0 0.00 0.00 0.00 32 1008.8
20260505112054 71 290 4.0 13.0 0.00 0.00 0.00 34 1008.8
20260505111553 71 282 7.0 13.0 0.00 0.00 0.00 32 1008.8
20260505111053 72 304 8.0 12.0 0.00 0.00 0.00 33 1008.8
20260505110555 73 309 6.0 9.0 0.00 0.00 0.00 31 1008.8
20260505110109 72 304 1.0 5.0 0.00 0.00 0.00 34 1008.9
20260505102044 71 314 2.0 6.0 0.00 0.00 0.00 35 1009.5
20260505101543 71 314 3.0 9.0 0.00 0.00 0.00 33 1009.6
20260505101043 70 291 4.0 10.0 0.00 0.00 0.00 33 1009.7
20260505100541 70 320 6.0 10.0 0.00 0.00 0.00 33 1009.7
20260505100041 70 255 4.0 10.0 0.00 0.00 0.00 32 1009.8
20260505095541 71 290 6.0 10.0 0.00 0.00 0.00 33 1009.9
20260505095039 71 309 3.0 8.0 0.00 0.00 0.00 34 1010.0
20260505094537 70 314 1.0 3.0 0.00 0.00 0.00 36 1010.0
20260505094036 70 314 2.0 4.0 0.00 0.00 0.00 32 1010.1
20260505093536 70 344 0.0 3.0 0.00 0.00 0.00 30 1010.2
20260505093035 70 287 1.0 3.0 0.00 0.00 0.00 31 1010.2
20260505092534 69 359 1.0 3.0 0.00 0.00 0.00 31 1010.3
20260505092035 69 125 1.0 4.0 0.00 0.00 0.00 34 1010.3
20260505091533 69 353 2.0 4.0 0.00 0.00 0.00 33 1010.3
20260505091033 69 330 1.0 6.0 0.00 0.00 0.00 34 1010.5
20260505090530 69 286 3.0 6.0 0.00 0.00 0.00 33 1010.5
20260505090029 69 314 1.0 3.0 0.00 0.00 0.00 36 1010.6
20260505085527 68 93 0.0 2.0 0.00 0.00 0.00 34 1010.8
20260505085025 67 14 1.0 5.0 0.00 0.00 0.00 40 1010.8
20260505084527 67 25 2.0 5.0 0.00 0.00 0.00 39 1010.8
20260505084022 66 115 0.0 3.0 0.00 0.00 0.00 42 1011.0
20260505083524 66 115 0.0 3.0 0.00 0.00 0.00 38 1011.1
20260505083020 65 126 1.0 3.0 0.00 0.00 0.00 40 1011.1
20260505082522 65 126 1.0 3.0 0.00 0.00 0.00 43 1011.1
20260505082018 64 126 1.0 2.0 0.00 0.00 0.00 42 1011.3
20260505081521 64 126 0.0 2.0 0.00 0.00 0.00 44 1011.4
20260505081017 63 126 0.0 2.0 0.00 0.00 0.00 45 1011.5
20260505080519 63 126 0.0 2.0 0.00 0.00 0.00 48 1011.5
20260505080015 63 126 0.0 2.0 0.00 0.00 0.00 46 1011.6
20260505075513 63 126 0.0 2.0 0.00 0.00 0.00 46 1011.6
20260505075012 63 126 0.0 2.0 0.00 0.00 0.00 46 1011.7
20260505074513 63 126 0.0 2.0 0.00 0.00 0.00 45 1011.7
20260505074011 63 126 0.0 3.0 0.00 0.00 0.00 47 1011.7
20260505073514 63 126 1.0 3.0 0.00 0.00 0.00 51 1011.8
20260505073008 62 126 1.0 2.0 0.00 0.00 0.00 51 1011.9
20260505072508 61 126 0.0 2.0 0.00 0.00 0.00 48 1012.0
20260505072007 61 126 0.0 2.0 0.00 0.00 0.00 54 1011.9
20260505071504 60 126 0.0 2.0 0.00 0.00 0.00 54 1012.0
20260505071004 59 126 0.0 2.0 0.00 0.00 0.00 57 1012.0
20260505070505 59 126 1.0 2.0 0.00 0.00 0.00 57 1012.1
20260505070004 59 126 0.0 2.0 0.00 0.00 0.00 57 1012.1
20260505065501 59 126 0.0 2.0 0.00 0.00 0.00 56 1012.1
20260505065003 59 126 0.0 2.0 0.00 0.00 0.00 54 1012.2
20260505064501 59 126 0.0 2.0 0.00 0.00 0.00 51 1012.2
20260505064100 59 126 0.0 2.0 0.00 0.00 0.00 51 1012.2
20260505063602 59 126 1.0 2.0 0.00 0.00 0.00 54 1012.3
20260505063104 58 126 0.0 2.0 0.00 0.00 0.00 54 1012.2
20260505062558 58 126 0.0 2.0 0.00 0.00 0.00 59 1012.3
20260505062056 57 126 0.0 1.0 0.00 0.00 0.00 60 1012.3
20260505061557 57 126 0.0 2.0 0.00 0.00 0.00 60 1012.3
20260505061055 56 126 0.0 2.0 0.00 0.00 0.00 55 1012.3
20260505060602 56 126 0.0 3.0 0.00 0.00 0.00 58 1012.4
20260505060055 55 126 1.0 3.0 0.00 0.00 0.00 58 1012.4
20260505055553 55 121 1.0 3.0 0.00 0.00 0.00 64 1012.3
20260505055053 54 159 1.0 3.0 0.00 0.00 0.00 58 1012.4
20260505054552 54 159 1.0 3.0 0.00 0.00 0.00 60 1012.3
20260505054050 55 159 0.0 2.0 0.00 0.00 0.00 62 1012.4
20260505053548 55 159 0.0 2.0 0.00 0.00 0.00 62 1012.4
20260505053048 54 159 0.0 2.0 0.00 0.00 0.00 62 1012.5
20260505052547 53 159 0.0 2.0 0.00 0.00 0.00 58 1012.5
20260505052046 53 159 0.0 2.0 0.00 0.00 0.00 61 1012.6
20260505051544 52 159 0.0 3.0 0.00 0.00 0.00 60 1012.6
20260505051043 52 159 0.0 2.0 0.00 0.00 0.00 61 1012.7
20260505050542 51 159 1.0 2.0 0.00 0.00 0.00 62 1012.8
20260505041532 49 309 1.0 3.0 0.00 0.00 0.00 64 1012.9
20260505041030 49 309 1.0 2.0 0.00 0.00 0.00 64 1012.9
20260505040529 50 309 0.0 2.0 0.00 0.00 0.00 63 1012.9
20260505040030 49 309 0.0 1.0 0.00 0.00 0.00 63 1012.8
20260505035527 49 309 0.0 2.0 0.00 0.00 0.00 63 1012.8
20260505035026 50 309 0.0 2.0 0.00 0.00 0.00 63 1012.8
20260505034527 50 159 0.0 2.0 0.00 0.00 0.00 62 1012.8
20260505034024 50 159 1.0 2.0 0.00 0.00 0.00 61 1012.8
20260505033524 51 159 0.0 2.0 0.00 0.00 0.00 61 1012.8
20260505033024 51 159 0.0 3.0 0.00 0.00 0.00 61 1012.7
20260505032523 51 159 2.0 3.0 0.00 0.00 0.00 61 1012.8
20260505032024 51 162 1.0 2.0 0.00 0.00 0.00 61 1012.8
20260505031521 51 162 1.0 2.0 0.00 0.00 0.00 60 1012.9
20260505031021 51 162 1.0 2.0 0.00 0.00 0.00 59 1012.9
20260505030522 51 162 0.0 2.0 0.00 0.00 0.00 59 1012.9
20260505030037 51 162 0.0 2.0 0.00 0.00 0.00 59 1012.9
20260505025519 51 162 0.0 2.0 0.00 0.00 0.00 59 1013.0
20260505025017 52 162 0.0 2.0 0.00 0.00 0.00 59 1013.0
20260505024518 52 162 0.0 2.0 0.00 0.00 0.00 59 1013.0
20260505024016 52 162 1.0 2.0 0.00 0.00 0.00 58 1013.0
20260505023515 52 162 1.0 2.0 0.00 0.00 0.00 58 1013.1
20260505023015 52 162 0.0 2.0 0.00 0.00 0.00 58 1013.2
20260505022515 52 162 0.0 2.0 0.00 0.00 0.00 58 1013.2
20260505022014 52 162 0.0 2.0 0.00 0.00 0.00 57 1013.2
20260505021518 52 162 0.0 2.0 0.00 0.00 0.00 58 1013.3
20260505021012 52 162 0.0 2.0 0.00 0.00 0.00 58 1013.3
20260505020511 53 162 0.0 0.0 0.00 0.00 0.00 58 1013.4
20260505020011 53 162 0.0 2.0 0.00 0.00 0.00 56 1013.4
20260505015511 53 162 0.0 2.0 0.00 0.00 0.00 56 1013.4
20260505015010 53 162 0.0 3.0 0.00 0.00 0.00 56 1013.4
20260505014515 54 162 1.0 2.0 0.00 0.00 0.00 55 1013.4
20260505014008 54 162 0.0 3.0 0.00 0.00 0.00 55 1013.4
20260505013508 55 162 1.0 3.0 0.00 0.00 0.00 52 1013.4
20260505013016 54 162 0.0 2.0 0.00 0.00 0.00 53 1013.5
20260505012508 54 162 0.0 4.0 0.00 0.00 0.00 55 1013.5
20260505012008 54 162 2.0 4.0 0.00 0.00 0.00 55 1013.5
20260505011506 54 180 2.0 3.0 0.00 0.00 0.00 55 1013.6
20260505011005 54 208 0.0 0.0 0.00 0.00 0.00 56 1013.6
20260505010504 54 208 0.0 1.0 0.00 0.00 0.00 55 1013.6
20260505010005 55 208 0.0 1.0 0.00 0.00 0.00 52 1013.7
20260505005507 55 208 0.0 2.0 0.00 0.00 0.00 53 1013.7
20260505005004 55 208 0.0 2.0 0.00 0.00 0.00 53 1013.7
20260505004508 55 208 0.0 2.0 0.00 0.00 0.00 53 1013.7
20260505004002 55 208 0.0 2.0 0.00 0.00 0.00 53 1013.8
20260505003501 55 208 1.0 2.0 0.00 0.00 0.00 53 1013.8
20260505003102 56 208 1.0 2.0 0.00 0.00 0.00 51 1013.8
20260505002602 56 208 0.0 2.0 0.00 0.00 0.00 51 1013.8
20260505002059 56 208 0.0 2.0 0.00 0.00 0.00 50 1013.9
20260505001559 56 208 0.0 2.0 0.00 0.00 0.00 49 1013.9
20260505001058 56 208 0.0 2.0 0.00 0.00 0.00 50 1013.9
20260505000558 57 208 0.0 3.0 0.00 0.00 0.00 50 1014.1
20260505000112 57 208 1.0 3.0 0.00 0.00 0.00 49 1014.1
20260504235556 57 208 1.0 2.0 0.00 0.00 0.00 48 1014.1
20260504235058 57 208 1.0 2.0 0.00 0.00 0.00 48 1014.0
20260504234556 57 208 1.0 2.0 0.00 0.00 0.00 48 1014.0
20260504234058 56 208 0.0 2.0 0.00 0.00 0.00 50 1014.1
20260504233555 56 208 0.0 2.0 0.00 0.00 0.00 50 1014.2
20260504233054 57 208 0.0 2.0 0.00 0.00 0.00 50 1014.2
20260504232554 57 208 0.0 2.0 0.00 0.00 0.00 48 1014.2
20260504232054 57 208 0.0 2.0 0.00 0.00 0.00 48 1014.2
20260504231619 57 208 0.0 2.0 0.00 0.00 0.00 48 1014.3
20260504231050 58 208 0.0 2.0 0.00 0.00 0.00 46 1014.3
20260504230550 58 208 0.0 2.0 0.00 0.00 0.00 46 1014.3
20260504230050 58 208 0.0 2.0 0.00 0.00 0.00 45 1014.3
20260504225549 58 208 0.0 2.0 0.00 0.00 0.00 46 1014.3
20260504225051 58 208 0.0 2.0 0.00 0.00 0.00 46 1014.4
20260504224547 58 208 0.0 2.0 0.00 0.00 0.00 47 1014.4
20260504224046 58 208 0.0 2.0 0.00 0.00 0.00 46 1014.5
20260504223546 58 208 0.0 2.0 0.00 0.00 0.00 47 1014.5
20260504223047 58 208 1.0 2.0 0.00 0.00 0.00 46 1014.7
20260504222545 58 208 0.0 2.0 0.00 0.00 0.00 45 1014.6
20260504222044 58 208 1.0 2.0 0.00 0.00 0.00 45 1014.7
20260504221612 58 208 0.0 1.0 0.00 0.00 0.00 46 1014.7
20260504221044 59 208 0.0 2.0 0.00 0.00 0.00 46 1014.7
20260504220543 59 208 1.0 2.0 0.00 0.00 0.00 45 1014.7
20260504220041 58 208 1.0 2.0 0.00 0.00 0.00 45 1014.7
20260504215543 58 208 1.0 2.0 0.00 0.00 0.00 47 1014.7
20260504215040 59 208 0.0 2.0 0.00 0.00 0.00 46 1014.7
20260504214540 59 208 0.0 2.0 0.00 0.00 0.00 46 1014.8
20260504214040 59 208 0.0 2.0 0.00 0.00 0.00 44 1014.8
20260504213541 59 208 1.0 2.0 0.00 0.00 0.00 43 1014.8
20260504213044 59 208 1.0 2.0 0.00 0.00 0.00 45 1014.8
20260504212541 58 208 0.0 2.0 0.00 0.00 0.00 45 1014.9
20260504212041 59 208 0.0 2.0 0.00 0.00 0.00 47 1014.9
20260504211540 59 208 0.0 2.0 0.00 0.00 0.00 46 1014.9
20260504211040 59 208 0.0 2.0 0.00 0.00 0.00 44 1014.9
20260504210541 60 208 0.0 2.0 0.00 0.00 0.00 44 1014.9
20260504210046 60 208 0.0 2.0 0.00 0.00 0.00 44 1014.8
20260504205539 60 208 0.0 2.0 0.00 0.00 0.00 43 1014.9
20260504205039 60 208 0.0 2.0 0.00 0.00 0.00 43 1014.9
20260504204539 61 208 0.0 2.0 0.00 0.00 0.00 42 1014.9
20260504204040 61 208 0.0 2.0 0.00 0.00 0.00 41 1014.9
20260504203539 61 208 0.0 2.0 0.00 0.00 0.00 40 1014.8
20260504203039 62 208 0.0 2.0 0.00 0.00 0.00 40 1014.8
20260504202538 62 208 0.0 1.0 0.00 0.00 0.00 39 1014.8
20260504202037 62 208 0.0 2.0 0.00 0.00 0.00 38 1014.7
20260504201539 62 208 0.0 2.0 0.00 0.00 0.00 38 1014.7
20260504201040 62 208 0.0 2.0 0.00 0.00 0.00 38 1014.8
20260504200538 63 208 0.0 2.0 0.00 0.00 0.00 38 1014.7
20260504200039 62 208 0.0 2.0 0.00 0.00 0.00 38 1014.7
20260504195536 63 208 0.0 2.0 0.00 0.00 0.00 40 1014.7
20260504195037 63 208 0.0 2.0 0.00 0.00 0.00 39 1014.7
20260504194542 63 208 0.0 2.0 0.00 0.00 0.00 38 1014.7
20260504194040 64 208 0.0 2.0 0.00 0.00 0.00 37 1014.7
20260504193536 64 208 0.0 2.0 0.00 0.00 0.00 37 1014.6